Overview Statistics Trail Chart Weather Telemetry Raw packets
 

This is the latest recevied weather packets stored in our database for station/object K6GMW. If no packets are shown the sender has not sent any weather packets the latest 10 day(s).

<< 21 22 23 24 25 26 27 >>
Time Temp. Humidity Pressure Rain* Wind** Luminosity Snow
1788483471 31.67° C 56% 1013.3 hPa 0 mm - 0 W/m² -
1788483167 32.22° C 54% 1013.3 hPa 0 mm - 1 W/m² -
1788482862 32.22° C 53% 1013.1 hPa 0 mm - 2 W/m² -
1788482558 32.78° C 53% 1013.1 hPa 0 mm - 4 W/m² -
1788482252 32.78° C 52% 1013.2 hPa 0 mm - 7 W/m² -
1788481948 32.78° C 51% 1013 hPa 0 mm - 11 W/m² -
1788481643 33.33° C 51% 1013.2 hPa 0 mm - 16 W/m² -
1788481340 33.33° C 50% 1013.2 hPa 0 mm - 26 W/m² -
1788481034 33.33° C 50% 1013.1 hPa 0 mm - 29 W/m² -
1788480734 33.89° C 49% 1013 hPa 0 mm - 36 W/m² -
1788480429 33.89° C 49% 1013 hPa 0 mm - 40 W/m² -
1788480124 34.44° C 48% 1012.8 hPa 0 mm - 44 W/m² -
1788479823 34.44° C 48% 1012.9 hPa 0 mm - 50 W/m² -
1788479520 34.44° C 48% 1013 hPa 0 mm - 57 W/m² -
1788479214 34.44° C 48% 1012.9 hPa 0 mm - 61 W/m² -
1788478910 34.44° C 48% 1013.4 hPa 0 mm - 68 W/m² -
1788478606 34.44° C 48% 1013.3 hPa 0 mm - 79 W/m² -
1788478302 34.44° C 48% 1013 hPa 0 mm - 88 W/m² -
1788477996 34.44° C 48% 1013 hPa 0 mm - 63 W/m² -
1788477692 34.44° C 46% 1012.8 hPa 0 mm - 112 W/m² -
1788477386 35° C 46% 1013 hPa 0 mm - 78 W/m² -
1788477086 34.44° C 47% 1012.7 hPa 0 mm - 150 W/m² -
1788476782 35° C 46% 1012.8 hPa 0 mm - 74 W/m² -
1788476481 35° C 46% 1012.7 hPa 0 mm - 170 W/m² -
1788476178 35° C 46% 1012.9 hPa 0 mm - 188 W/m² -

* Rain latest hour (hover to see other rain measurements)
** Current wind speed in m/s (hover to see current wind gust speed)